Regional Weather Roundup
Issued by NWS

Home | Current Version | Previous Version | Graphics & Text | Print | Product List | Glossary On
Versions: 1 2 3 4 5 6 7 8 9 10 11 12 13 14 15 16 17 18 19 20 21 22 23 24 25 26 27 28 29 30 31 32 33 34 35 36 37 38 39 40 41 42 43 44 45 46 47 48 49 50
000
ASUS43 KLSX 202359
RWRMO

WEATHER SUMMARY FOR MISSOURI
NATIONAL WEATHER SERVICE SPRINGFIELD MO
700 PM CDT SUN APR 20 2014

NOTE: "FAIR" INDICATES FEW OR NO CLOUDS BELOW 12,000 FEET WITH NO
       SIGNIFICANT WEATHER AND/OR OBSTRUCTIONS TO VISIBILITY.
       CURRENT SKY AND/OR WEATHER CONDITIONS ARE NOT AVAILABLE FOR
       CHILLICOTHE AND FARMINGTON.

MOZ001>031-035>038-043-044-053-054-210100-
...NORTHERN AND WESTERN MISSOURI...

CITY           SKY/WX    TMP DP  RH WIND       PRES   REMARKS
KANSAS CTY INT CLOUDY    73  53  49 S14       29.98F
6HR MIN TEMP:  72; 6HR MAX TEMP:  77;

KANSAS C DTWN  CLOUDY    74  52  46 S13       29.98F
6HR MIN TEMP:  74; 6HR MAX TEMP:  79;

LEE`S SUMMIT   CLOUDY    73  51  46 S8G21     30.01F
6HR MIN TEMP:  73; 6HR MAX TEMP:  77;

ST JOSEPH      CLOUDY    76  53  44 S14       29.96F
6HR MIN TEMP:  75; 6HR MAX TEMP:  82;

CHILLICOTHE      N/A     76  48  37 S7        30.00F
6HR MIN TEMP:  75; 6HR MAX TEMP:  80;

KIRKSVILLE     CLOUDY    75  47  36 SW7       30.01F
6HR MIN TEMP:  75; 6HR MAX TEMP:  81;


$$
MOZ066>068-077>081-088>096-101>105-210100-
...SOUTHWEST MISSOURI...

CITY           SKY/WX    TMP DP  RH WIND       PRES   REMARKS
SPRINGFIELD    MOCLDY    73  52  47 CALM      30.05F
6HR MIN TEMP:  72; 6HR MAX TEMP:  77;

JOPLIN         CLOUDY    71  53  52 VRB6      30.05F
6HR MIN TEMP:  71; 6HR MAX TEMP:  76;


$$
MOZ032>034-039>042-045>050-055>058-069>072-210100-
...CENTRAL MISSOURI...

CITY           SKY/WX    TMP DP  RH WIND       PRES   REMARKS
COLUMBIA       CLOUDY    74  51  44 S6        30.02F
6HR MIN TEMP:  74; 6HR MAX TEMP:  81;

JEFFERSON CITY CLOUDY    78  47  33 S6        30.01F
6HR MIN TEMP:  76; 6HR MAX TEMP:  81;

ROLLA          CLOUDY    71  51  49 SW7       30.04F
6HR MIN TEMP:  71; 6HR MAX TEMP:  80;

SEDALIA        CLOUDY    74  51  44 SW7       30.03F
6HR MIN TEMP:  74; 6HR MAX TEMP:  80;

OSAGE BEACH    CLOUDY    75  48  38 SW6       30.04F

$$
MOZ051-052-059>065-210100-
...EAST CENTRAL MISSOURI...

CITY           SKY/WX    TMP DP  RH WIND       PRES   REMARKS
ST LOUIS INTL  MOCLDY    79  43  27 SE16      30.04F
6HR MIN TEMP:  78; 6HR MAX TEMP:  83;

SPIRIT OF STL  MOCLDY    78  38  23 S5        30.02F
6HR MIN TEMP:  78; 6HR MAX TEMP:  82;

ST CHARLES     PTCLDY    78  44  29 SE12      30.02F
6HR MIN TEMP:  77; 6HR MAX TEMP:  81;


$$
MOZ072>076-082>087-097>100-106>115-210100-
...SOUTH CENTRAL AND SOUTHEAST MISSOURI...

CITY           SKY/WX    TMP DP  RH WIND       PRES   REMARKS
CAPE GIRARDEAU CLEAR     73  51  46 S5        30.08F
6HR MIN TEMP:  71; 6HR MAX TEMP:  78;

FARMINGTON     PTCLDY    72  43  35 SE7       30.09F
6HR MIN TEMP:  72; 6HR MAX TEMP:  79;

POPLAR BLUFF   MOCLDY    76  49  38 CALM      30.06F
6HR MIN TEMP:  75; 6HR MAX TEMP:  80;

WEST PLAINS    MOCLDY    74  45  35 SE3       30.08F
6HR MIN TEMP:  73; 6HR MAX TEMP:  77;


$$



USA.gov is the U.S. government's official web portal to all federal, state and local government web resources and services.